| time (UTC) | temp C | wind direction | speed KPH | gust KPH | rain 1hr cm | rain 24hr cm | rain mn cm | humidity % | barometer mb |
| 20260505184224 | 13 | 327 | 4.8 | 9.7 | 0.00 | 0.00 | 0.00 | 31 | 1008.0 |
| 20260505183720 | 15 | 81 | 3.2 | 4.8 | 0.00 | 0.00 | 0.00 | 30 | 1008.2 |
| 20260505183218 | 13 | 197 | 0.0 | 1.6 | 0.00 | 0.00 | 0.00 | 35 | 1008.0 |
| 20260505182714 | 13 | 146 | 1.6 | 1.6 | 0.00 | 0.00 | 0.00 | 33 | 1008.0 |
| 20260505182212 | 14 | 45 | 3.2 | 4.8 | 0.00 | 0.00 | 0.00 | 32 | 1007.9 |
| 20260505181708 | 14 | 17 | 3.2 | 4.8 | 0.00 | 0.00 | 0.00 | 29 | 1007.8 |
| 20260505181206 | 13 | 219 | 8.0 | 14.5 | 0.00 | 0.00 | 0.00 | 29 | 1007.7 |
| 20260505180702 | 14 | 78 | 0.0 | 1.6 | 0.00 | 0.00 | 0.00 | 31 | 1007.7 |
| 20260505180159 | 13 | 207 | 6.4 | 9.7 | 0.00 | 0.00 | 0.00 | 32 | 1008.0 |
| 20260505175655 | 13 | 239 | 4.8 | 6.4 | 0.00 | 0.00 | 0.00 | 35 | 1007.9 |
| 20260505175151 | 12 | 29 | 3.2 | 4.8 | 0.00 | 0.00 | 0.00 | 31 | 1007.9 |
| 20260505174648 | 14 | 268 | 8.0 | 16.1 | 0.00 | 0.00 | 0.00 | 29 | 1007.9 |
| 20260505174144 | 13 | 74 | 3.2 | 4.8 | 0.00 | 0.00 | 0.00 | 31 | 1008.0 |
| 20260505173641 | 14 | 210 | 1.6 | 1.6 | 0.00 | 0.00 | 0.00 | 32 | 1007.9 |
| 20260505173138 | 13 | 26 | 3.2 | 4.8 | 0.00 | 0.00 | 0.00 | 30 | 1007.9 |
| 20260505172635 | 14 | 7 | 6.4 | 9.7 | 0.00 | 0.00 | 0.00 | 29 | 1008.0 |
| 20260505172132 | 14 | 251 | 1.6 | 4.8 | 0.00 | 0.00 | 0.00 | 31 | 1008.0 |
| 20260505171631 | 13 | 84 | 1.6 | 3.2 | 0.00 | 0.00 | 0.00 | 36 | 1008.0 |
| 20260505171129 | 13 | 12 | 4.8 | 6.4 | 0.00 | 0.00 | 0.00 | 31 | 1008.1 |
| 20260505170626 | 13 | 319 | 6.4 | 9.7 | 0.00 | 0.00 | 0.00 | 30 | 1008.0 |
| 20260505170122 | 14 | 298 | 6.4 | 9.7 | 0.00 | 0.00 | 0.00 | 31 | 1008.0 |
| 20260505165617 | 13 | 275 | 4.8 | 4.8 | 0.00 | 0.00 | 0.00 | 29 | 1008.1 |
| 20260505165114 | 13 | 238 | 4.8 | 4.8 | 0.00 | 0.00 | 0.00 | 33 | 1007.9 |
| 20260505164609 | 12 | 268 | 11.3 | 14.5 | 0.00 | 0.00 | 0.00 | 32 | 1007.8 |
| 20260505164107 | 13 | 51 | 3.2 | 4.8 | 0.00 | 0.00 | 0.00 | 32 | 1008.0 |
| 20260505163605 | 13 | 84 | 1.6 | 3.2 | 0.00 | 0.00 | 0.00 | 32 | 1007.9 |
| 20260505163102 | 13 | 356 | 3.2 | 4.8 | 0.00 | 0.00 | 0.00 | 34 | 1007.8 |
| 20260505162600 | 12 | 19 | 6.4 | 6.4 | 0.00 | 0.00 | 0.00 | 34 | 1007.8 |
| 20260505162058 | 12 | 106 | 1.6 | 4.8 | 0.00 | 0.00 | 0.00 | 37 | 1007.5 |
| 20260505161554 | 12 | 311 | 6.4 | 9.7 | 0.00 | 0.00 | 0.00 | 31 | 1007.7 |
| 20260505161052 | 12 | 207 | 3.2 | 4.8 | 0.00 | 0.00 | 0.00 | 34 | 1007.9 |
| 20260505160549 | 12 | 321 | 4.8 | 4.8 | 0.00 | 0.00 | 0.00 | 33 | 1007.8 |
| 20260505153026 | 12 | 179 | 1.6 | 3.2 | 0.00 | 0.00 | 0.00 | 40 | 1007.7 |
| 20260505152523 | 10 | 159 | 0.0 | 1.6 | 0.00 | 0.00 | 0.00 | 41 | 1007.8 |
| 20260505152018 | 11 | 4 | 3.2 | 3.2 | 0.00 | 0.00 | 0.00 | 36 | 1007.8 |
| 20260505151514 | 12 | 314 | 3.2 | 3.2 | 0.00 | 0.00 | 0.00 | 38 | 1007.9 |
| 20260505151012 | 11 | 329 | 1.6 | 1.6 | 0.00 | 0.00 | 0.00 | 38 | 1007.7 |
| 20260505150508 | 11 | 296 | 1.6 | 4.8 | 0.00 | 0.00 | 0.00 | 38 | 1007.8 |
| 20260505140433 | 10 | 328 | 4.8 | 6.4 | 0.00 | 0.00 | 0.00 | 42 | 1008.1 |
| 20260505124846 | 8 | 33 | 4.8 | 4.8 | 0.00 | 0.00 | 0.00 | 52 | 1008.0 |
| 20260505124343 | 8 | 225 | 1.6 | 1.6 | 0.00 | 0.00 | 0.00 | 51 | 1008.0 |
| 20260505123839 | 7 | 255 | 3.2 | 3.2 | 0.00 | 0.00 | 0.00 | 52 | 1007.8 |
| 20260505123336 | 7 | 274 | 3.2 | 3.2 | 0.00 | 0.00 | 0.00 | 54 | 1008.0 |
| 20260505122832 | 7 | 86 | 0.0 | 1.6 | 0.00 | 0.00 | 0.00 | 54 | 1007.9 |
| 20260505122330 | 7 | 259 | 3.2 | 3.2 | 0.00 | 0.00 | 0.00 | 53 | 1008.2 |
| 20260505121826 | 7 | 128 | 1.6 | 1.6 | 0.00 | 0.00 | 0.00 | 53 | 1008.0 |
| 20260505121324 | 7 | 303 | 3.2 | 4.8 | 0.00 | 0.00 | 0.00 | 52 | 1007.7 |
| 20260505120819 | 7 | 249 | 6.4 | 6.4 | 0.00 | 0.00 | 0.00 | 51 | 1007.8 |
| 20260505120316 | 7 | 216 | 0.0 | 0.0 | 0.00 | 0.00 | 0.00 | 53 | 1007.5 |
| 20260505115814 | 7 | 151 | 0.0 | 0.0 | 0.00 | 0.00 | 0.00 | 55 | 1007.6 |
| 20260505115312 | 6 | 170 | 3.2 | 3.2 | 0.00 | 0.00 | 0.00 | 54 | 1007.6 |
| 20260505114810 | 6 | 188 | 0.0 | 1.6 | 0.00 | 0.00 | 0.00 | 53 | 1007.3 |
| 20260505114306 | 6 | 196 | 0.0 | 0.0 | 0.00 | 0.00 | 0.00 | 58 | 1007.1 |
| 20260505113802 | 6 | 127 | 1.6 | 1.6 | 0.00 | 0.00 | 0.00 | 55 | 1006.6 |
| 20260505113259 | 6 | 173 | 0.0 | 1.6 | 0.00 | 0.00 | 0.00 | 59 | 1006.6 |
| 20260505112754 | 5 | 209 | 1.6 | 1.6 | 0.00 | 0.00 | 0.00 | 61 | 1006.3 |
| 20260505112252 | 5 | 153 | 0.0 | 0.0 | 0.00 | 0.00 | 0.00 | 62 | 1006.2 |
| 20260505111747 | 5 | 215 | 1.6 | 1.6 | 0.00 | 0.00 | 0.00 | 57 | 1006.1 |
| 20260505111243 | 5 | 185 | 0.0 | 0.0 | 0.00 | 0.00 | 0.00 | 62 | 1005.9 |
| 20260505110739 | 5 | 229 | 0.0 | 0.0 | 0.00 | 0.00 | 0.00 | 60 | 1005.9 |
| 20260505110237 | 4 | 200 | 0.0 | 0.0 | 0.00 | 0.00 | 0.00 | 59 | 1005.9 |
| 20260505102212 | 5 | 211 | 1.6 | 1.6 | 0.00 | 0.00 | 0.00 | 58 | 1006.1 |
| 20260505101711 | 5 | 170 | 0.0 | 0.0 | 0.00 | 0.00 | 0.00 | 57 | 1006.0 |
| 20260505101206 | 5 | 183 | 0.0 | 0.0 | 0.00 | 0.00 | 0.00 | 57 | 1005.9 |
| 20260505100703 | 5 | 187 | 0.0 | 1.6 | 0.00 | 0.00 | 0.00 | 54 | 1005.9 |
| 20260505100200 | 5 | 201 | 0.0 | 0.0 | 0.00 | 0.00 | 0.00 | 54 | 1006.0 |
| 20260505095655 | 5 | 201 | 0.0 | 0.0 | 0.00 | 0.00 | 0.00 | 55 | 1005.8 |
| 20260505095154 | 5 | 201 | 0.0 | 0.0 | 0.00 | 0.00 | 0.00 | 55 | 1005.7 |
| 20260505094649 | 5 | 201 | 0.0 | 0.0 | 0.00 | 0.00 | 0.00 | 56 | 1006.0 |
| 20260505094146 | 5 | 200 | 0.0 | 0.0 | 0.00 | 0.00 | 0.00 | 54 | 1005.7 |
| 20260505093642 | 5 | 201 | 0.0 | 0.0 | 0.00 | 0.00 | 0.00 | 55 | 1005.8 |
| 20260505093140 | 5 | 200 | 0.0 | 0.0 | 0.00 | 0.00 | 0.00 | 55 | 1005.5 |
| 20260505092636 | 5 | 199 | 0.0 | 0.0 | 0.00 | 0.00 | 0.00 | 56 | 1005.5 |
| 20260505092135 | 5 | 199 | 0.0 | 0.0 | 0.00 | 0.00 | 0.00 | 56 | 1005.8 |
| 20260505091632 | 6 | 199 | 0.0 | 0.0 | 0.00 | 0.00 | 0.00 | 54 | 1005.5 |
| 20260505091130 | 6 | 200 | 0.0 | 0.0 | 0.00 | 0.00 | 0.00 | 53 | 1005.5 |
| 20260505090627 | 6 | 200 | 0.0 | 0.0 | 0.00 | 0.00 | 0.00 | 53 | 1005.9 |
| 20260505090125 | 6 | 200 | 0.0 | 1.6 | 0.00 | 0.00 | 0.00 | 52 | 1005.8 |
| 20260505085622 | 6 | 183 | 0.0 | 0.0 | 0.00 | 0.00 | 0.00 | 52 | 1005.5 |
| 20260505085120 | 6 | 183 | 0.0 | 0.0 | 0.00 | 0.00 | 0.00 | 51 | 1005.7 |
| 20260505084618 | 6 | 183 | 0.0 | 0.0 | 0.00 | 0.00 | 0.00 | 52 | 1005.8 |
| 20260505084116 | 6 | 183 | 0.0 | 0.0 | 0.00 | 0.00 | 0.00 | 52 | 1005.4 |
| 20260505083613 | 6 | 178 | 0.0 | 1.6 | 0.00 | 0.00 | 0.00 | 52 | 1005.3 |
| 20260505083109 | 6 | 161 | 0.0 | 1.6 | 0.00 | 0.00 | 0.00 | 54 | 1005.2 |
| 20260505082605 | 6 | 175 | 0.0 | 0.0 | 0.00 | 0.00 | 0.00 | 52 | 1005.0 |
| 20260505082103 | 6 | 199 | 0.0 | 0.0 | 0.00 | 0.00 | 0.00 | 51 | 1005.1 |
| 20260505081559 | 6 | 136 | 3.2 | 3.2 | 0.00 | 0.00 | 0.00 | 52 | 1004.9 |
| 20260505081056 | 7 | 176 | 1.6 | 1.6 | 0.00 | 0.00 | 0.00 | 52 | 1004.6 |
| 20260505080552 | 7 | 182 | 0.0 | 0.0 | 0.00 | 0.00 | 0.00 | 51 | 1004.5 |
| 20260505080049 | 7 | 189 | 3.2 | 3.2 | 0.00 | 0.00 | 0.00 | 49 | 1004.3 |
| 20260505075545 | 7 | 238 | 3.2 | 4.8 | 0.00 | 0.00 | 0.00 | 49 | 1004.3 |
| 20260505075042 | 7 | 164 | 0.0 | 0.0 | 0.00 | 0.00 | 0.00 | 51 | 1004.3 |
| 20260505074539 | 7 | 156 | 1.6 | 3.2 | 0.00 | 0.00 | 0.00 | 50 | 1004.3 |
| 20260505074036 | 7 | 225 | 0.0 | 1.6 | 0.00 | 0.00 | 0.00 | 50 | 1004.0 |
| 20260505073533 | 7 | 205 | 0.0 | 1.6 | 0.00 | 0.00 | 0.00 | 49 | 1004.2 |
| 20260505073032 | 7 | 308 | 3.2 | 3.2 | 0.00 | 0.00 | 0.00 | 51 | 1003.8 |
| 20260505072527 | 7 | 143 | 1.6 | 1.6 | 0.00 | 0.00 | 0.00 | 52 | 1003.8 |
| 20260505072023 | 7 | 219 | 1.6 | 1.6 | 0.00 | 0.00 | 0.00 | 50 | 1003.9 |
| 20260505071519 | 7 | 127 | 1.6 | 3.2 | 0.00 | 0.00 | 0.00 | 51 | 1003.8 |
| 20260505071018 | 8 | 110 | 1.6 | 3.2 | 0.00 | 0.00 | 0.00 | 48 | 1003.7 |
| 20260505070515 | 8 | 22 | 3.2 | 4.8 | 0.00 | 0.00 | 0.00 | 48 | 1003.4 |
| 20260505070010 | 8 | 322 | 1.6 | 1.6 | 0.00 | 0.00 | 0.00 | 48 | 1003.4 |
| 20260505065506 | 8 | 173 | 3.2 | 3.2 | 0.00 | 0.00 | 0.00 | 49 | 1003.4 |
| 20260505065003 | 8 | 15 | 6.4 | 9.7 | 0.00 | 0.00 | 0.00 | 48 | 1003.3 |
| 20260505064500 | 8 | 300 | 3.2 | 3.2 | 0.00 | 0.00 | 0.00 | 49 | 1003.3 |
| 20260505063958 | 8 | 118 | 3.2 | 3.2 | 0.00 | 0.00 | 0.00 | 48 | 1003.3 |
| 20260505063455 | 8 | 191 | 4.8 | 11.3 | 0.00 | 0.00 | 0.00 | 49 | 1003.3 |
| 20260505062951 | 8 | 30 | 3.2 | 3.2 | 0.00 | 0.00 | 0.00 | 54 | 1003.3 |
| 20260505062448 | 8 | 69 | 1.6 | 1.6 | 0.00 | 0.00 | 0.00 | 54 | 1003.4 |
| 20260505061945 | 8 | 161 | 0.0 | 0.0 | 0.00 | 0.00 | 0.00 | 54 | 1003.2 |
| 20260505061443 | 8 | 155 | 0.0 | 1.6 | 0.00 | 0.00 | 0.00 | 54 | 1003.2 |
| 20260505060940 | 9 | 148 | 1.6 | 1.6 | 0.00 | 0.00 | 0.00 | 54 | 1003.1 |
| 20260505060437 | 9 | 178 | 0.0 | 1.6 | 0.00 | 0.00 | 0.00 | 53 | 1003.0 |
| 20260505055933 | 9 | 207 | 3.2 | 4.8 | 0.00 | 0.00 | 0.00 | 51 | 1003.0 |
| 20260505055430 | 9 | 150 | 1.6 | 3.2 | 0.00 | 0.00 | 0.00 | 54 | 1003.0 |
| 20260505054926 | 9 | 169 | 0.0 | 0.0 | 0.00 | 0.00 | 0.00 | 54 | 1002.8 |
| 20260505054424 | 10 | 147 | 0.0 | 0.0 | 0.00 | 0.00 | 0.00 | 53 | 1002.8 |
| 20260505053922 | 10 | 126 | 1.6 | 3.2 | 0.00 | 0.00 | 0.00 | 52 | 1002.8 |
| 20260505053419 | 10 | 46 | 8.0 | 16.1 | 0.00 | 0.00 | 0.00 | 51 | 1002.9 |
| 20260505052916 | 10 | 150 | 3.2 | 3.2 | 0.00 | 0.00 | 0.00 | 51 | 1002.7 |
| 20260505052412 | 10 | 131 | 3.2 | 4.8 | 0.00 | 0.00 | 0.00 | 51 | 1002.5 |
| 20260505051910 | 11 | 202 | 0.0 | 1.6 | 0.00 | 0.00 | 0.00 | 50 | 1002.8 |
| 20260505051407 | 11 | 110 | 1.6 | 1.6 | 0.00 | 0.00 | 0.00 | 49 | 1002.4 |
| 20260505050905 | 11 | 102 | 1.6 | 1.6 | 0.00 | 0.00 | 0.00 | 50 | 1002.3 |
| 20260505050403 | 11 | 233 | 1.6 | 1.6 | 0.00 | 0.00 | 0.00 | 50 | 1002.4 |
| 20260505041330 | 11 | 232 | 1.6 | 1.6 | 0.00 | 0.00 | 0.00 | 47 | 1001.6 |
| 20260505040827 | 11 | 197 | 1.6 | 1.6 | 0.00 | 0.00 | 0.00 | 49 | 1001.5 |
| 20260505040325 | 12 | 295 | 3.2 | 4.8 | 0.00 | 0.00 | 0.00 | 48 | 1001.3 |
| 20260505035822 | 12 | 145 | 1.6 | 1.6 | 0.00 | 0.00 | 0.00 | 46 | 1001.5 |
| 20260505035317 | 12 | 235 | 1.6 | 1.6 | 0.00 | 0.00 | 0.00 | 47 | 1001.7 |
| 20260505034815 | 12 | 99 | 3.2 | 4.8 | 0.00 | 0.00 | 0.00 | 46 | 1001.4 |
| 20260505034311 | 12 | 271 | 0.0 | 0.0 | 0.00 | 0.00 | 0.00 | 46 | 1001.5 |
| 20260505033808 | 12 | 212 | 1.6 | 1.6 | 0.00 | 0.00 | 0.00 | 47 | 1001.4 |
| 20260505033305 | 12 | 329 | 3.2 | 3.2 | 0.00 | 0.00 | 0.00 | 46 | 1001.3 |
| 20260505032804 | 12 | 127 | 3.2 | 4.8 | 0.00 | 0.00 | 0.00 | 45 | 1001.1 |
| 20260505032259 | 12 | 214 | 1.6 | 1.6 | 0.00 | 0.00 | 0.00 | 45 | 1001.1 |
| 20260505031757 | 12 | 210 | 3.2 | 3.2 | 0.00 | 0.00 | 0.00 | 45 | 1000.8 |
| 20260505031253 | 12 | 147 | 1.6 | 1.6 | 0.00 | 0.00 | 0.00 | 44 | 1000.6 |
| 20260505030750 | 12 | 160 | 0.0 | 0.0 | 0.00 | 0.00 | 0.00 | 44 | 1000.9 |
| 20260505030246 | 12 | 2 | 1.6 | 1.6 | 0.00 | 0.00 | 0.00 | 43 | 1000.9 |
| 20260505025742 | 12 | 9 | 1.6 | 3.2 | 0.00 | 0.00 | 0.00 | 43 | 1000.7 |
| 20260505025240 | 12 | 178 | 0.0 | 0.0 | 0.00 | 0.00 | 0.00 | 42 | 1000.4 |
| 20260505024738 | 12 | 233 | 1.6 | 1.6 | 0.00 | 0.00 | 0.00 | 42 | 1000.6 |
| 20260505024235 | 12 | 156 | 0.0 | 0.0 | 0.00 | 0.00 | 0.00 | 41 | 1000.4 |
| 20260505023732 | 13 | 168 | 0.0 | 1.6 | 0.00 | 0.00 | 0.00 | 41 | 1000.3 |
| 20260505023230 | 13 | 173 | 0.0 | 1.6 | 0.00 | 0.00 | 0.00 | 41 | 1000.0 |
| 20260505022727 | 13 | 75 | 1.6 | 1.6 | 0.00 | 0.00 | 0.00 | 39 | 999.9 |
| 20260505022224 | 13 | 9 | 1.6 | 3.2 | 0.00 | 0.00 | 0.00 | 38 | 999.7 |
| 20260505021720 | 13 | 324 | 1.6 | 3.2 | 0.00 | 0.00 | 0.00 | 40 | 999.7 |
| 20260505021218 | 14 | 354 | 1.6 | 1.6 | 0.00 | 0.00 | 0.00 | 36 | 999.4 |
| 20260505020713 | 14 | 352 | 4.8 | 4.8 | 0.00 | 0.00 | 0.00 | 37 | 999.3 |
| 20260505020208 | 14 | 104 | 1.6 | 1.6 | 0.00 | 0.00 | 0.00 | 37 | 999.3 |
| 20260505015706 | 14 | 28 | 3.2 | 3.2 | 0.00 | 0.00 | 0.00 | 34 | 999.2 |
| 20260505015202 | 15 | 266 | 3.2 | 3.2 | 0.00 | 0.00 | 0.00 | 34 | 999.0 |
| 20260505014659 | 15 | 328 | 4.8 | 4.8 | 0.00 | 0.00 | 0.00 | 35 | 998.7 |
| 20260505014151 | 15 | 165 | 1.6 | 1.6 | 0.00 | 0.00 | 0.00 | 37 | 998.7 |
| 20260505013648 | 15 | 358 | 6.4 | 6.4 | 0.00 | 0.00 | 0.00 | 36 | 998.8 |
| 20260505013145 | 15 | 39 | 4.8 | 4.8 | 0.00 | 0.00 | 0.00 | 36 | 999.0 |
| 20260505012644 | 15 | 286 | 3.2 | 4.8 | 0.00 | 0.00 | 0.00 | 36 | 999.1 |
| 20260505012140 | 15 | 31 | 4.8 | 11.3 | 0.00 | 0.00 | 0.00 | 34 | 998.9 |
| 20260505011636 | 15 | 9 | 3.2 | 4.8 | 0.00 | 0.00 | 0.00 | 34 | 998.2 |
| 20260505011133 | 15 | 127 | 1.6 | 1.6 | 0.00 | 0.00 | 0.00 | 34 | 998.3 |
| 20260505010628 | 16 | 141 | 3.2 | 9.7 | 0.00 | 0.00 | 0.00 | 33 | 998.2 |
| 20260505010125 | 16 | 36 | 3.2 | 3.2 | 0.00 | 0.00 | 0.00 | 33 | 998.4 |
| 20260505005621 | 16 | 24 | 3.2 | 3.2 | 0.00 | 0.00 | 0.00 | 36 | 997.8 |
| 20260505005118 | 16 | 10 | 6.4 | 9.7 | 0.00 | 0.00 | 0.00 | 36 | 997.9 |
| 20260505004615 | 16 | 40 | 3.2 | 6.4 | 0.00 | 0.00 | 0.00 | 35 | 997.7 |
| 20260505004112 | 16 | 343 | 3.2 | 3.2 | 0.00 | 0.00 | 0.00 | 37 | 998.0 |
| 20260505003609 | 17 | 77 | 4.8 | 6.4 | 0.00 | 0.00 | 0.00 | 34 | 997.9 |
| 20260505003107 | 17 | 0 | 1.6 | 1.6 | 0.00 | 0.00 | 0.00 | 34 | 997.8 |
| 20260505002602 | 17 | 108 | 3.2 | 4.8 | 0.00 | 0.00 | 0.00 | 35 | 997.7 |
| 20260505002101 | 17 | 322 | 4.8 | 9.7 | 0.00 | 0.00 | 0.00 | 34 | 997.6 |
| 20260505001558 | 18 | 128 | 4.8 | 6.4 | 0.00 | 0.00 | 0.00 | 36 | 997.4 |
| 20260505001055 | 18 | 272 | 9.7 | 12.9 | 0.00 | 0.00 | 0.00 | 36 | 997.6 |
| 20260505000552 | 18 | 286 | 4.8 | 9.7 | 0.00 | 0.00 | 0.00 | 33 | 997.5 |
| 20260505000050 | 19 | 228 | 3.2 | 4.8 | 0.00 | 0.00 | 0.00 | 33 | 997.3 |
| 20260504235546 | 19 | 337 | 3.2 | 6.4 | 0.00 | 0.00 | 0.00 | 35 | 997.4 |
| 20260504235043 | 19 | 268 | 8.0 | 11.3 | 0.00 | 0.00 | 0.00 | 35 | 997.1 |
| 20260504234540 | 19 | 70 | 0.0 | 1.6 | 0.00 | 0.00 | 0.00 | 35 | 997.1 |
| 20260504234037 | 20 | 335 | 6.4 | 6.4 | 0.00 | 0.00 | 0.00 | 34 | 997.1 |
| 20260504233532 | 20 | 37 | 3.2 | 6.4 | 0.00 | 0.00 | 0.00 | 33 | 997.1 |
| 20260504233029 | 20 | 136 | 3.2 | 4.8 | 0.00 | 0.00 | 0.00 | 32 | 997.0 |
| 20260504232526 | 21 | 219 | 3.2 | 4.8 | 0.00 | 0.00 | 0.00 | 34 | 996.7 |
| 20260504232024 | 21 | 221 | 6.4 | 9.7 | 0.00 | 0.00 | 0.00 | 33 | 996.6 |
| 20260504231521 | 21 | 310 | 3.2 | 4.8 | 0.00 | 0.00 | 0.00 | 33 | 996.5 |
| 20260504231016 | 22 | 45 | 6.4 | 11.3 | 0.00 | 0.00 | 0.00 | 32 | 996.6 |
| 20260504230513 | 22 | 162 | 4.8 | 9.7 | 0.00 | 0.00 | 0.00 | 32 | 996.5 |
| 20260504230012 | 22 | 270 | 1.6 | 1.6 | 0.00 | 0.00 | 0.00 | 34 | 996.4 |
| 20260504225509 | 22 | 109 | 3.2 | 4.8 | 0.00 | 0.00 | 0.00 | 36 | 996.7 |
| 20260504225006 | 22 | 18 | 3.2 | 4.8 | 0.00 | 0.00 | 0.00 | 35 | 996.4 |
| 20260504224502 | 23 | 44 | 3.2 | 4.8 | 0.00 | 0.00 | 0.00 | 35 | 996.3 |
| 20260504223959 | 23 | 312 | 6.4 | 12.9 | 0.00 | 0.00 | 0.00 | 34 | 996.3 |
| 20260504223456 | 23 | 117 | 3.2 | 3.2 | 0.00 | 0.00 | 0.00 | 35 | 996.3 |
| 20260504222951 | 24 | 275 | 4.8 | 6.4 | 0.00 | 0.00 | 0.00 | 37 | 996.3 |
| 20260504222449 | 25 | 98 | 3.2 | 6.4 | 0.00 | 0.00 | 0.00 | 35 | 995.8 |
| 20260504221946 | 25 | 325 | 3.2 | 3.2 | 0.00 | 0.00 | 0.00 | 35 | 995.9 |
| 20260504221444 | 25 | 278 | 6.4 | 6.4 | 0.00 | 0.00 | 0.00 | 34 | 995.8 |
| 20260504220941 | 25 | 291 | 3.2 | 4.8 | 0.00 | 0.00 | 0.00 | 32 | 995.5 |
| 20260504220437 | 25 | 152 | 3.2 | 4.8 | 0.00 | 0.00 | 0.00 | 33 | 995.7 |
| 20260504215934 | 25 | 325 | 6.4 | 6.4 | 0.00 | 0.00 | 0.00 | 33 | 995.5 |
| 20260504215431 | 25 | 270 | 1.6 | 3.2 | 0.00 | 0.00 | 0.00 | 35 | 995.4 |
| 20260504214927 | 26 | 147 | 1.6 | 3.2 | 0.00 | 0.00 | 0.00 | 34 | 995.4 |
| 20260504214424 | 26 | 210 | 3.2 | 4.8 | 0.00 | 0.00 | 0.00 | 34 | 995.3 |
| 20260504213920 | 26 | 197 | 1.6 | 4.8 | 0.00 | 0.00 | 0.00 | 34 | 995.3 |
| 20260504213416 | 26 | 207 | 1.6 | 3.2 | 0.00 | 0.00 | 0.00 | 33 | 995.3 |
| 20260504212914 | 26 | 2 | 6.4 | 9.7 | 0.00 | 0.00 | 0.00 | 34 | 995.3 |
| 20260504212409 | 26 | 241 | 6.4 | 6.4 | 0.00 | 0.00 | 0.00 | 32 | 995.3 |
| 20260504211908 | 26 | 48 | 3.2 | 3.2 | 0.00 | 0.00 | 0.00 | 32 | 995.2 |
| 20260504211403 | 26 | 290 | 6.4 | 6.4 | 0.00 | 0.00 | 0.00 | 29 | 995.1 |
| 20260504210901 | 26 | 210 | 6.4 | 9.7 | 0.00 | 0.00 | 0.00 | 29 | 995.3 |
| 20260504210358 | 26 | 177 | 9.7 | 12.9 | 0.00 | 0.00 | 0.00 | 30 | 995.2 |
| 20260504205855 | 25 | 178 | 1.6 | 1.6 | 0.00 | 0.00 | 0.00 | 32 | 995.3 |
| 20260504205353 | 25 | 220 | 8.0 | 9.7 | 0.00 | 0.00 | 0.00 | 31 | 995.5 |
| 20260504204850 | 25 | 237 | 3.2 | 3.2 | 0.00 | 0.00 | 0.00 | 32 | 995.5 |
| 20260504204349 | 25 | 214 | 3.2 | 6.4 | 0.00 | 0.00 | 0.00 | 33 | 995.2 |
| 20260504203848 | 25 | 217 | 0.0 | 1.6 | 0.00 | 0.00 | 0.00 | 31 | 995.3 |
| 20260504203344 | 25 | 299 | 6.4 | 11.3 | 0.00 | 0.00 | 0.00 | 31 | 995.5 |
| 20260504202840 | 26 | 204 | 3.2 | 4.8 | 0.00 | 0.00 | 0.00 | 30 | 995.4 |
| 20260504202337 | 25 | 39 | 3.2 | 4.8 | 0.00 | 0.00 | 0.00 | 31 | 995.5 |
| 20260504201834 | 25 | 323 | 3.2 | 6.4 | 0.00 | 0.00 | 0.00 | 29 | 995.6 |
| 20260504201331 | 26 | 107 | 3.2 | 6.4 | 0.00 | 0.00 | 0.00 | 29 | 995.6 |
| 20260504200829 | 27 | 284 | 6.4 | 11.3 | 0.00 | 0.00 | 0.00 | 31 | 995.7 |
| 20260504200325 | 26 | 239 | 6.4 | 6.4 | 0.00 | 0.00 | 0.00 | 28 | 995.5 |
| 20260504195821 | 27 | 273 | 6.4 | 9.7 | 0.00 | 0.00 | 0.00 | 29 | 995.9 |
| 20260504195317 | 26 | 131 | 0.0 | 1.6 | 0.00 | 0.00 | 0.00 | 32 | 995.8 |
| 20260504194814 | 26 | 313 | 8.0 | 11.3 | 0.00 | 0.00 | 0.00 | 29 | 995.6 |
| 20260504194310 | 25 | 17 | 4.8 | 6.4 | 0.00 | 0.00 | 0.00 | 30 | 995.5 |
| 20260504193806 | 25 | 159 | 4.8 | 4.8 | 0.00 | 0.00 | 0.00 | 29 | 995.7 |
| 20260504193304 | 25 | 208 | 4.8 | 9.7 | 0.00 | 0.00 | 0.00 | 31 | 995.8 |
| 20260504192803 | 26 | 190 | 3.2 | 4.8 | 0.00 | 0.00 | 0.00 | 30 | 995.8 |
| 20260504192300 | 25 | 159 | 6.4 | 11.3 | 0.00 | 0.00 | 0.00 | 30 | 996.0 |
| 20260504191759 | 25 | 242 | 12.9 | 20.9 | 0.00 | 0.00 | 0.00 | 31 | 996.0 |
| 20260504191255 | 25 | 350 | 1.6 | 3.2 | 0.00 | 0.00 | 0.00 | 32 | 996.2 |
| 20260504190751 | 25 | 163 | 1.6 | 1.6 | 0.00 | 0.00 | 0.00 | 32 | 996.2 |
| 20260504190247 | 25 | 27 | 8.0 | 11.3 | 0.00 | 0.00 | 0.00 | 32 | 996.1 |
| 20260504185744 | 25 | 310 | 8.0 | 12.9 | 0.00 | 0.00 | 0.00 | 32 | 996.3 |
| 20260504185241 | 25 | 107 | 1.6 | 3.2 | 0.00 | 0.00 | 0.00 | 33 | 996.3 |
| 20260504184737 | 26 | 291 | 6.4 | 9.7 | 0.00 | 0.00 | 0.00 | 31 | 996.4 |